Weather History for LRSV - November, 2013

Change the Weather History Date:

Saturday, November 2, 2013

  Actual Average Record
Temperature  
Mean Temperature 50 °F -  
Max Temperature 62 °F - - ()
Min Temperature 39 °F - - ()
Degree Days  
Heating Degree Days 14    
Moisture  
Dew Point 46 °F    
Average Humidity 84    
Maximum Humidity 100    
Minimum Humidity 59    
Precipitation  
Precipitation 0.00 in - - ()
Sea Level Pressure  
Sea Level Pressure 30.01 in    
Wind  
Wind Speed 8 mph ()    
Max Wind Speed 12 mph    
Max Gust Speed -    
Visibility 2.7 miles    
Events Fog    
T = Trace of Precipitation, MM = Missing Value Source: Averaged Metar Reports

Daily Weather History Graph

Daily Weather History Graph

Search for Another Location

Airport or City:

Trip Planner

Search our weather history database for the weather conditions in past years. The results will help you decide how hot, cold, wet, or windy it might be!

Date:

Astronomy

Nov. 02, 2013 Rise Set
Actual Time 7:00 AM EET 4:55 PM EET
Civil Twilight 6:27 AM EET 5:27 PM EET
Nautical Twilight 5:51 AM EET 6:04 PM EET
Astronomical Twilight 5:15 AM EET 6:40 PM EET
Moon 5:31 AM EET 4:16 PM EET
Length of Visible Light 10h 59m
Length of Day
9h 55m
Waning Crescent, 2% of the Moon is Illuminated
Nov 2
Waning Crescent
Nov 3
New
Nov 10
First Quarter
Nov 17
Full
Nov 25
Last Quarter

Hourly Weather History & Observations

Time (EET) Temp. Windchill Dew Point Humidity Pressure Visibility Wind Dir Wind Speed Gust Speed Precip Events Conditions
12:00 AM 44.6 °F 38.8 °F 44.6 °F 100% 30.12 in 1.6 mi South 11.5 mph - N/A   Mist
1:00 AM 44.6 °F 39.7 °F 42.8 °F 93% 30.12 in 1.1 mi South 9.2 mph - N/A   Mist
2:00 AM 42.8 °F 37.5 °F 42.8 °F 100% 30.09 in 0.6 mi South 9.2 mph - N/A   Unknown
3:00 AM 42.8 °F 37.5 °F 42.8 °F 100% 30.09 in 0.7 mi WSW 9.2 mph - N/A   Mist
4:00 AM 41.0 °F 36.4 °F 41.0 °F 100% 30.06 in 0.0 mi SW 6.9 mph - N/A Fog Fog
5:00 AM 41.0 °F 34.3 °F 41.0 °F 100% 30.06 in 1.2 mi WSW 11.5 mph - N/A   Unknown
5:30 AM 41.0 °F 34.3 °F 41.0 °F 100% 30.06 in 0.4 mi WSW 11.5 mph - N/A Fog Fog
6:00 AM 39.2 °F 33.0 °F 39.2 °F 100% 30.06 in 0.1 mi WSW 9.2 mph - N/A Fog Fog
6:30 AM 39.2 °F 33.0 °F 39.2 °F 100% 30.06 in 0.2 mi WSW 9.2 mph - N/A Fog Fog
7:00 AM 41.0 °F 34.3 °F 41.0 °F 100% 30.06 in 3.7 mi WSW 11.5 mph - N/A   Unknown
7:30 AM 42.8 °F 36.6 °F 41.0 °F 93% 30.06 in 4.3 mi WSW 11.5 mph - N/A   Unknown
8:00 AM 44.6 °F 38.8 °F 44.6 °F 100% 30.06 in - WSW 11.5 mph - N/A   Clear
8:30 AM 46.4 °F 41.9 °F 46.4 °F 100% 30.06 in - WSW 9.2 mph - N/A   Clear
9:00 AM 46.4 °F 41.9 °F 44.6 °F 93% 30.06 in - WSW 9.2 mph - N/A   Clear
9:30 AM 48.2 °F - 46.4 °F 93% 30.06 in - WSW 11.5 mph - N/A   Clear
10:00 AM 53.6 °F - 48.2 °F 82% 30.04 in - WSW 9.2 mph - N/A   Clear
10:30 AM 53.6 °F - 48.2 °F 82% 30.04 in - WSW 9.2 mph - N/A   Clear
11:00 AM 57.2 °F - 48.2 °F 72% 30.04 in - WSW 9.2 mph - N/A   Clear
11:30 AM 57.2 °F - 48.2 °F 72% 30.04 in - WSW 6.9 mph - N/A   Clear
12:00 PM 59.0 °F - 50.0 °F 72% 30.04 in - WSW 6.9 mph - N/A   Clear
12:30 PM 62.6 °F - 48.2 °F 59% 30.01 in - WSW 9.2 mph - N/A   Clear
1:00 PM 62.6 °F - 48.2 °F 59% 30.01 in - SSW 9.2 mph - N/A   Clear
1:30 PM 62.6 °F - 51.8 °F 68% 29.98 in - South 9.2 mph - N/A   Clear
2:00 PM 62.6 °F - 50.0 °F 63% 29.98 in - South 6.9 mph - N/A   Clear
2:30 PM 62.6 °F - 50.0 °F 63% 29.98 in - SSE 9.2 mph - N/A   Clear
3:00 PM 62.6 °F - 50.0 °F 63% 29.98 in - SSE 9.2 mph - N/A   Clear
3:30 PM 60.8 °F - 50.0 °F 68% 29.98 in - SSE 9.2 mph - N/A   Clear
4:00 PM 59.0 °F - 48.2 °F 67% 29.98 in - SSE 9.2 mph - N/A   Clear
4:30 PM 55.4 °F - 48.2 °F 77% 29.95 in - SSE 4.6 mph - N/A   Clear
5:00 PM 53.6 °F - 48.2 °F 82% 29.95 in 5.0 mi South 6.9 mph - N/A   Unknown
5:30 PM 53.6 °F - 46.4 °F 77% 29.95 in 5.0 mi South 4.6 mph - N/A   Unknown
6:00 PM 51.8 °F - 46.4 °F 82% 29.95 in 4.3 mi South 4.6 mph - N/A   Unknown
6:30 PM 51.8 °F - 46.4 °F 82% 29.95 in 4.3 mi South 4.6 mph - N/A   Unknown
7:00 PM 51.8 °F - 46.4 °F 82% 29.95 in 5.0 mi South 4.6 mph - N/A   Unknown
7:30 PM 50.0 °F - 44.6 °F 82% 29.92 in - South 4.6 mph - N/A   Clear
8:00 PM 50.0 °F - 46.4 °F 87% 29.95 in 4.3 mi South 6.9 mph - N/A   Unknown
8:30 PM 50.0 °F - 46.4 °F 87% 29.95 in 4.3 mi SSW 6.9 mph - N/A   Unknown
9:00 PM 48.2 °F - 46.4 °F 93% 29.95 in 3.7 mi SSW 6.9 mph - N/A   Unknown
10:00 PM 48.2 °F - 46.4 °F 93% 29.92 in 3.1 mi South 4.6 mph - N/A   Partly Cloudy
11:00 PM 50.0 °F - 46.4 °F 87% 29.92 in 3.1 mi South 9.2 mph - N/A   Partly Cloudy